CAPE
0 0 0 0 0 5 11 13 11 0 14 40 15 143 445 502 753 197 181 534 188 44 9 44 430 495 491 310 275 397 436 262 397 455 632 554 593 661 401 435 246 349 279 502 380 261 269 299 231
0 0 0 0 0 0 13 4 2 10 16 9 18 13 604 508 64 0 162 606 138 40 9 21 497 586 729 641 325 281 528 130 451 410 543 345 340 361 243 289 233 602 684 250 123 101 68 80 170
0 0 0 0 0 0 0 0 3 3 77 72 89 593 745 465 117 3 134 411 140 86 41 76 476 567 721 820 898 827 709 480 630 667 832 898 613 370 402 443 432 772 759 210 41 1 0 0 0
0 0 0 0 0 0 0 0 33 47 140 179 329 963 665 424 139 64 80 311 138 207 82 132 321 500 648 844 828 795 714 526 713 741 832 636 450 562 650 607 551 418 159 0 0 0 0 0 0
0 0 0 0 0 0 0 0 13 24 249 211 366 962 616 407 147 48 84 170 345 354 111 88 288 543 651 691 675 569 644 569 725 678 669 456 475 683 497 322 268 215 146 9 0 0 0 0 0
0 0 0 0 0 0 0 0 0 13 297 259 1047 1053 879 401 120 97 40 158 815 361 287 146 525 685 581 416 389 426 476 513 609 655 511 550 560 430 343 258 198 153 103 0 0 0 0 0 0
0 0 0 0 0 0 0 0 0 12 247 279 303 1383 887 394 237 143 104 217 725 437 376 284 247 470 269 63 99 187 397 408 480 477 330 326 289 205 134 101 80 26 0 0 0 0 0 0 0
0 0 0 0 0 0 0 0 0 5 163 356 796 1159 875 534 343 244 179 302 426 656 671 451 274 168 144 27 43 39 77 180 205 196 98 82 78 14 0 54 64 9 0 0 0 0 0 0 0
0 0 0 0 0 0 0 0 0 5 238 159 485 988 1006 537 374 393 197 171 572 553 555 377 223 64 104 12 22 20 5 10 19 27 0 0 0 0 0 0 0 0 0 0 0 0 0 0 0
0 0 0 0 0 0 0 1 0 36 226 656 823 1076 837 549 466 390 168 142 268 261 321 157 178 78 15 0 0 0 0 0 0 0 0 0 0 0 0 0 0 0 0 0 0 0 4 17 24
0 0 0 0 0 0 0 14 116 288 104 688 968 1076 781 646 574 366 141 139 126 94 93 79 120 57 0 0 0 0 0 0 0 0 0 0 0 0 0 0 0 0 0 0 0 35 54 61 113
0 0 0 0 0 0 0 1 31 1 167 286 930 1026 947 764 558 315 124 111 53 129 41 16 16 37 7 0 0 0 0 0 0 0 20 12 0 0 0 0 0 0 4 3 42 66 402 112 62
0 0 0 0 0 0 0 0 0 1 2 270 856 1068 914 805 490 215 117 81 95 71 52 0 23 80 13 0 0 0 0 0 0 2 5 0 0 0 0 0 0 5 15 45 187 203 162 91 89
0 0 0 0 0 0 0 0 0 0 0 1 214 1134 909 704 489 162 92 62 107 77 9 36 0 68 60 59 83 229 0 54 1 37 18 38 11 244 94 20 21 233 163 54 127 71 93 0 0
0 0 0 0 0 0 0 0 0 0 2 0 383 1285 1064 783 560 148 71 100 95 18 0 69 0 60 153 501 211 278 120 179 71 40 372 454 164 277 92 24 358 214 183 403 156 87 16 0 0
0 0 0 0 0 0 0 0 0 0 4 0 13 1120 1149 916 599 167 71 112 65 11 0 10 1 75 92 207 129 117 290 198 192 294 340 518 232 418 642 141 223 142 136 259 252 55 9 13 12
0 0 0 0 0 0 0 0 0 0 0 1 0 908 1037 995 676 273 81 78 83 58 38 16 79 126 190 206 63 230 389 212 162 200 254 614 569 676 657 294 235 232 178 52 55 23 16 9 10
0 0 0 0 0 0 0 0 0 0 0 1 0 460 827 1014 735 341 143 98 79 113 91 62 196 223 227 136 108 138 182 300 218 192 191 511 555 628 719 326 230 312 7 9 13 16 15 10 12
0 0 0 0 0 0 0 0 0 0 0 1 14 71 819 949 765 400 212 199 84 135 178 110 198 273 167 126 88 86 130 213 261 178 306 464 483 529 526 157 224 189 54 2 17 4 4 2 0
0 0 0 0 0 0 0 0 0 0 0 0 26 79 309 1038 861 472 345 274 125 104 195 178 184 353 222 141 112 165 246 311 210 210 559 473 279 302 275 86 69 24 1 0 0 0 6 6 2
0 0 0 0 0 0 0 0 0 0 0 0 1 151 358 950 895 592 387 280 189 167 204 192 237 402 264 260 143 355 496 425 262 347 289 316 137 95 119 3 0 0 0 0 0 0 0 4 1
0 0 0 0 0 0 0 0 0 0 0 0 0 114 616 697 1020 670 484 311 173 151 239 212 283 398 298 296 195 359 499 366 239 256 245 159 46 0 11 7 0 0 0 0 0 0 0 0 0
0 0 0 0 0 0 0 0 0 0 0 0 0 4 633 834 958 708 510 447 237 222 198 227 290 410 391 346 349 604 811 656 559 300 224 65 32 16 29 45 5 0 0 0 0 0 0 0 0
0 0 0 1 0 1 0 0 0 0 0 0 0 0 168 840 676 791 391 308 209 170 256 232 396 424 483 439 782 744 902 503 442 246 126 33 9 57 50 46 13 0 0 11 8 0 0 0 0
0 12 4 1 0 0 0 0 0 0 0 0 0 60 113 38 938 967 678 497 119 44 452 300 392 457 586 691 505 1015 826 762 542 282 96 34 0 14 46 46 36 10 47 29 30 0 0 0 0
0 1 0 0 0 0 0 0 0 0 19 383 564 537 17 0 309 969 965 925 394 68 636 622 576 584 903 735 649 766 568 439 505 499 307 37 9 0 1 15 62 118 57 51 17 0 0 0 0
1 0 0 3 1 4 0 0 0 0 40 229 366 475 486 528 577 963 1220 1063 658 614 752 884 715 910 793 902 949 499 493 508 650 390 389 196 25 21 11 71 106 79 108 85 18 0 0 0 0
0 0 5 18 0 32 6 10 6 0 0 0 21 248 416 523 585 470 338 385 747 921 970 1238 1051 787 682 555 577 576 384 751 775 479 369 162 69 90 57 117 79 47 77 93 54 1 0 0 0
0 0 17 12 11 6 28 37 158 33 12 0 0 0 260 377 406 193 168 172 392 597 440 998 874 770 724 482 588 492 390 553 474 548 436 300 105 84 128 82 47 58 101 108 55 4 0 0 0
0 0 2 77 1 23 25 9 111 71 20 0 0 0 0 8 167 89 192 204 391 700 837 886 916 540 661 646 486 561 608 398 345 536 468 300 101 92 115 107 76 60 65 64 19 1 0 0 0
CIN
-0 -0 -0 -15 -0 -93 -48 -14 -19 -0 -26 -39 -47 -33 -64 -76 -23 -70 -46 -133 -158 -311 -319 -207 -21 -21 -0 -6 -3 -2 -2 -8 -4 -1 -1 -3 -2 -1 -6 -1 -17 -10 -0 -0 -6 -29 -33 -52 -62
-0 -0 -0 -0 -0 -0 -52 -37 -111 -28 -6 -79 -76 -47 -25 -80 -103 -0 -85 -114 -216 -321 -168 -223 -2 -0 -0 -0 -3 -11 -1 -15 -4 -6 -1 -8 -5 -9 -11 -1 -0 -1 -0 -6 -28 -55 -86 -104 -74
-0 -0 -0 -0 -0 -0 -0 -0 -13 -10 -33 -45 -71 -33 -36 -73 -139 -48 -117 -118 -201 -231 -225 -165 -0 -0 -0 -0 -0 -0 -1 -6 -0 -0 -0 -0 -0 -3 -1 -1 -1 -0 -0 -18 -72 -37 -0 -0 -0
-0 -0 -0 -0 -0 -0 -0 -0 -9 -313 -45 -26 -48 -68 -85 -62 -150 -180 -145 -96 -162 -149 -197 -101 -5 -0 -0 -0 -0 -0 -0 -1 -0 -0 -0 -0 -2 -0 -1 -1 -0 -0 -27 -1 -0 -0 -0 -0 -0
-0 -0 -0 -0 -0 -0 -0 -3 -1 -8 -4 -18 -4 -42 -97 -107 -169 -192 -139 -98 -102 -135 -188 -128 -9 -0 -0 -0 -0 -0 -0 -1 -0 -0 -0 -0 -0 -0 -0 -2 -13 -22 -36 -11 -0 -0 -0 -0 -0
-0 -0 -0 -0 -0 -0 -0 -0 -0 -15 -4 -8 -17 -56 -73 -127 -198 -177 -171 -94 -64 -126 -86 -82 -1 -0 -0 -0 -0 -0 -0 -0 -0 -0 -0 -0 -0 -0 -0 -13 -22 -40 -60 -0 -0 -0 -0 -0 -0
-0 -0 -0 -0 -0 -0 -0 -0 -0 -55 -0 -7 -5 -18 -86 -123 -148 -151 -144 -71 -63 -84 -57 -41 -32 -0 -3 -66 -44 -8 -0 -1 -0 -0 -2 -3 -1 -2 -14 -33 -50 -26 -0 -0 -0 -0 -0 -0 -0
-0 -0 -0 -0 -0 -0 -0 -0 -0 -12 -11 -5 -18 -36 -94 -123 -136 -121 -128 -60 -88 -21 -3 -20 -36 -23 -30 -85 -81 -60 -23 -1 -7 -9 -25 -10 -11 -5 -0 -50 -67 -17 -0 -0 -0 -0 -0 -0 -0
-0 -0 -0 -0 -0 -0 -0 -0 -0 -30 -11 -12 -19 -58 -96 -133 -145 -118 -149 -119 -40 -32 -11 -35 -52 -81 -60 -81 -59 -88 -92 -109 -67 -33 -0 -0 -0 -0 -0 -0 -0 -0 -0 -0 -0 -0 -0 -0 -0
-0 -0 -0 -0 -0 -0 -0 -19 -0 -65 -13 -8 -50 -105 -116 -152 -131 -188 -189 -150 -96 -106 -65 -89 -67 -91 -61 -0 -0 -0 -0 -0 -0 -0 -0 -0 -0 -0 -0 -0 -0 -0 -0 -0 -0 -0 -132 -100 -1
-0 -0 -0 -0 -0 -0 -0 -14 -1 -14 -18 -8 -44 -114 -146 -142 -101 -151 -195 -159 -141 -181 -161 -127 -93 -115 -0 -0 -0 -0 -0 -0 -0 -0 -0 -0 -0 -0 -0 -0 -0 -0 -0 -0 -0 -2 -1 -0 -4
-0 -0 -0 -0 -0 -0 -0 -3 -2 -19 -26 -7 -24 -118 -132 -128 -115 -140 -194 -188 -244 -149 -219 -240 -173 -126 -32 -0 -0 -0 -0 -0 -0 -0 -40 -29 -0 -0 -0 -0 -0 -0 -4 -37 -39 -2 -15 -36 -72
-0 -0 -0 -0 -0 -0 -0 -0 -0 -12 -14 -10 -11 -113 -125 -110 -118 -153 -182 -182 -188 -216 -205 -0 -193 -133 -41 -0 -0 -0 -0 -0 -0 -43 -32 -0 -0 -0 -0 -0 -0 -0 -3 -20 -18 -35 -23 -58 -76
-0 -0 -0 -0 -0 -0 -0 -0 -0 -0 -0 -16 -25 -92 -141 -138 -123 -162 -207 -215 -196 -214 -269 -197 -0 -152 -178 -161 -148 -68 -3 -114 -36 -86 -119 -129 -38 -63 -89 -59 -44 -31 -75 -61 -63 -30 -17 -0 -0
-0 -0 -0 -0 -0 -0 -0 -0 -0 -0 -7 -0 -3 -44 -95 -120 -103 -172 -212 -202 -205 -256 -0 -190 -0 -162 -108 -42 -103 -65 -120 -64 -114 -114 -28 -24 -55 -49 -85 -52 -38 -63 -70 -23 -63 -83 -3 -0 -0
-0 -0 -0 -0 -0 -0 -0 -0 -0 -0 -1 -0 -1 -32 -65 -96 -105 -171 -230 -178 -214 -279 -0 -293 -38 -163 -149 -93 -118 -122 -63 -75 -70 -49 -41 -25 -34 -31 -16 -51 -77 -71 -98 -36 -31 -73 -1 -2 -3
-0 -0 -0 -0 -0 -0 -0 -0 -0 -0 -0 -3 -0 -15 -61 -90 -109 -161 -171 -201 -222 -241 -318 -308 -213 -153 -93 -109 -144 -59 -39 -81 -91 -48 -30 -14 -13 -17 -26 -26 -57 -37 -28 -53 -54 -5 -3 -3 -3
-0 -0 -0 -0 -0 -0 -0 -0 -0 -0 -0 -1 -0 -11 -41 -90 -127 -201 -236 -192 -209 -219 -303 -300 -171 -144 -91 -129 -140 -117 -65 -48 -69 -49 -24 -18 -15 -12 -19 -41 -52 -30 -17 -7 -2 -3 -0 -0 -0
-0 -0 -0 -0 -0 -0 -0 -0 -0 -0 -0 -4 -4 -9 -22 -55 -120 -164 -212 -171 -37 -199 -295 -336 -215 -153 -170 -162 -172 -158 -99 -57 -63 -68 -57 -37 -25 -15 -15 -51 -50 -53 -69 -2 -24 -2 -2 -0 -0
-0 -0 -0 -0 -0 -0 -0 -0 -0 -0 -0 -0 -1 -7 -14 -21 -74 -119 -180 -152 -209 -221 -303 -342 -281 -154 -185 -182 -157 -94 -55 -28 -77 -62 -28 -24 -34 -13 -23 -68 -85 -85 -15 -0 -0 -0 -2 -1 -1
-0 -0 -0 -0 -0 -0 -0 -0 -0 -0 -0 -0 -0 -5 -22 -19 -48 -104 -190 -175 -199 -207 -317 -360 -298 -180 -195 -144 -133 -37 -34 -29 -65 -38 -52 -27 -37 -57 -46 -36 -0 -0 -0 -0 -0 -0 -0 -0 -0
-0 -0 -0 -0 -0 -0 -0 -0 -0 -0 -0 -0 -0 -8 -29 -28 -23 -68 -114 -157 -208 -225 -301 -322 -291 -218 -188 -118 -129 -49 -23 -45 -47 -50 -49 -44 -101 -0 -97 -101 -0 -0 -0 -0 -0 -0 -0 -0 -0
-0 -0 -0 -0 -0 -0 -1 -0 -0 -0 -0 -0 -0 -3 -23 -13 -33 -62 -89 -101 -201 -202 -294 -315 -252 -229 -160 -113 -76 -27 -12 -14 -14 -2 -49 -113 -107 -110 -106 -81 -112 -0 -0 -0 -0 -0 -0 -0 -0
-0 -0 -0 -0 -0 -0 -0 -0 -0 -0 -0 -0 -0 -0 -5 -23 -19 -25 -96 -128 -120 -170 -225 -230 -186 -168 -128 -98 -43 -29 -22 -17 -6 -30 -119 -119 -90 -77 -67 -55 -91 -0 -0 -64 -114 -0 -0 -0 -0
-0 -0 -0 -0 -0 -0 -0 -0 -0 -0 -0 -0 -0 -2 -15 -3 -70 -44 -9 -112 -144 -174 -152 -170 -143 -139 -89 -93 -39 -26 -23 -29 -17 -56 -144 -171 -0 -114 -68 -58 -54 -50 -24 -53 -74 -0 -0 -0 -0
-0 -0 -0 -0 -0 -0 -0 -0 -0 -0 -85 -79 -63 -62 -16 -0 -21 -69 -6 -132 -175 -185 -79 -91 -67 -51 -27 -52 -42 -40 -77 -38 -49 -4 -29 -125 -302 -0 -15 -46 -3 -0 -0 -9 -56 -0 -0 -0 -0
-0 -0 -0 -0 -0 -0 -0 -0 -0 -21 -99 -156 -155 -137 -104 -74 -156 -53 -152 -17 -92 -91 -48 -56 -25 -16 -38 -32 -39 -34 -66 -66 -35 -0 -8 -57 -171 -137 -110 -5 -30 -39 -14 -16 -11 -0 -0 -0 -0
-0 -0 -0 -0 -0 -0 -0 -0 -9 -0 -0 -0 -163 -98 -55 -39 -29 -33 -23 -59 -50 -27 -33 -15 -26 -19 -38 -63 -85 -119 -93 -36 -35 -0 -30 -70 -53 -58 -48 -56 -52 -57 -66 -22 -37 -6 -0 -0 -0
-4 -0 -0 -0 -1 -0 -0 -0 -38 -137 -198 -0 -0 -0 -96 -72 -82 -180 -132 -65 -80 -24 -28 -9 -14 -17 -16 -61 -20 -46 -46 -11 -19 -3 -28 -60 -117 -80 -62 -77 -82 -18 -5 -15 -16 -30 -0 -0 -0
-0 -2 -21 -0 -0 -9 -3 -4 -118 -120 -212 -0 -0 -0 -0 -5 -76 -171 -109 -85 -54 -86 -0 -0 -1 -18 -8 -12 -22 -1 -9 -12 -7 -0 -20 -20 -33 -33 -44 -37 -43 -38 -33 -39 -31 -10 -0 -0 -0
Wind_Speed
nan nan nan nan nan nan nan nan nan nan nan nan nan 28 35 25 17 25 28 25 25 nan nan nan 20 21 15 16 14 10 11 16 14 10 8 9 5 10 16 13 14 9 9 11 6 8 6 9 11
nan nan nan nan nan nan nan nan nan nan nan nan nan nan 34 31 nan nan 25 23 24 nan nan nan 18 19 16 15 15 12 12 15 20 13 10 7 7 2 4 1 9 5 11 11 7 5 nan nan 8
nan nan nan nan nan nan nan nan nan nan nan nan nan 39 25 26 23 nan 26 26 24 nan nan nan 17 17 16 14 15 14 13 9 14 9 7 5 3 7 3 7 7 7 7 6 nan nan nan nan nan
nan nan nan nan nan nan nan nan nan nan 34 17 30 32 27 30 24 nan nan 26 22 22 nan 16 15 15 14 13 15 13 12 12 15 13 9 7 5 8 10 8 8 9 8 nan nan nan nan nan nan
nan nan nan nan nan nan nan nan nan nan 32 17 30 28 27 30 31 nan nan 23 21 23 18 nan 12 13 12 15 17 14 14 14 14 13 9 10 10 10 12 9 8 8 10 nan nan nan nan nan nan
nan nan nan nan nan nan nan nan nan nan 37 27 42 29 23 27 29 nan nan 23 26 19 18 14 13 12 11 14 14 16 14 17 17 16 11 13 13 12 13 12 11 9 9 nan nan nan nan nan nan
nan nan nan nan nan nan nan nan nan nan 16 36 30 25 23 25 26 23 23 21 23 20 16 12 9 12 11 nan nan 16 17 16 17 17 17 14 13 15 15 12 nan nan nan nan nan nan nan nan nan
nan nan nan nan nan nan nan nan nan nan 18 49 35 25 18 27 25 24 25 20 22 20 17 11 10 8 8 nan nan nan nan 14 14 13 nan nan nan nan nan nan nan nan nan nan nan nan nan nan nan
nan nan nan nan nan nan nan nan nan nan 28 36 24 31 29 30 29 26 22 16 20 18 16 12 8 nan 7 nan nan nan nan nan nan nan nan nan nan nan nan nan nan nan nan nan nan nan nan nan nan
nan nan nan nan nan nan nan nan nan nan 30 33 41 35 34 27 31 27 19 17 16 19 16 11 9 nan nan nan nan nan nan nan nan nan nan nan nan nan nan nan nan nan nan nan nan nan nan nan nan
nan nan nan nan nan nan nan nan 34 34 22 31 39 30 29 24 28 23 19 19 14 nan nan nan 9 nan nan nan nan nan nan nan nan nan nan nan nan nan nan nan nan nan nan nan nan nan nan nan 3
nan nan nan nan nan nan nan nan nan nan 19 31 40 29 26 23 24 20 19 20 nan 13 nan nan nan nan nan nan nan nan nan nan nan nan nan nan nan nan nan nan nan nan nan nan nan nan 4 11 nan
nan nan nan nan nan nan nan nan nan nan nan 35 42 31 28 22 21 20 20 nan nan nan nan nan nan nan nan nan nan nan nan nan nan nan nan nan nan nan nan nan nan nan nan nan 2 3 4 nan nan
nan nan nan nan nan nan nan nan nan nan nan nan 31 31 29 23 19 21 nan nan 19 nan nan nan nan nan nan nan nan 19 nan nan nan nan nan nan nan 7 nan nan nan 5 5 nan 6 nan nan nan nan
nan nan nan nan nan nan nan nan nan nan nan nan 38 31 26 26 20 18 nan 21 nan nan nan nan nan nan 19 20 20 21 17 18 nan nan 13 12 12 8 nan nan 9 9 9 10 11 nan nan nan nan
nan nan nan nan nan nan nan nan nan nan nan nan nan 31 27 27 24 25 nan 24 nan nan nan nan nan nan nan 21 20 20 19 18 16 18 17 13 14 12 12 11 12 12 9 8 10 nan nan nan nan
nan nan nan nan nan nan nan nan nan nan nan nan nan 38 32 30 27 32 nan nan nan nan nan nan nan 22 22 25 nan 19 21 17 18 19 16 14 13 14 11 13 14 12 10 nan nan nan nan nan nan
nan nan nan nan nan nan nan nan nan nan nan nan nan 37 33 36 30 32 28 nan nan 30 nan nan 24 24 22 26 22 21 22 19 22 19 18 16 19 17 13 18 16 10 nan nan nan nan nan nan nan
nan nan nan nan nan nan nan nan nan nan nan nan nan nan 36 36 34 35 36 33 nan 36 29 28 25 24 23 24 nan nan 24 20 23 22 23 20 20 18 14 20 19 12 nan nan nan nan nan nan nan
nan nan nan nan nan nan nan nan nan nan nan nan nan nan 44 39 39 35 39 38 37 37 33 32 28 27 23 25 25 27 27 23 26 24 26 22 24 21 19 nan nan nan nan nan nan nan nan nan nan
nan nan nan nan nan nan nan nan nan nan nan nan nan 32 49 41 41 41 40 41 42 40 33 30 29 30 28 26 26 29 31 30 27 29 29 26 29 nan 25 nan nan nan nan nan nan nan nan nan nan
nan nan nan nan nan nan nan nan nan nan nan nan nan 29 45 41 41 43 41 39 39 42 38 32 32 32 32 29 30 27 30 31 34 35 35 33 nan nan nan nan nan nan nan nan nan nan nan nan nan
nan nan nan nan nan nan nan nan nan nan nan nan nan nan 36 35 38 48 40 40 38 42 41 37 38 37 35 33 35 35 35 39 38 40 40 nan nan nan nan nan nan nan nan nan nan nan nan nan nan
nan nan nan nan nan nan nan nan nan nan nan nan nan nan 28 49 27 39 49 47 47 45 45 43 45 38 40 36 42 44 39 41 40 43 43 nan nan nan nan nan nan nan nan nan nan nan nan nan nan
nan nan nan nan nan nan nan nan nan nan nan nan nan nan 42 nan 56 48 40 48 48 nan 49 49 47 46 45 49 44 47 48 48 45 43 nan nan nan nan nan nan nan nan nan nan nan nan nan nan nan
nan nan nan nan nan nan nan nan nan nan nan 51 51 57 nan nan 43 58 7 39 44 nan 51 50 48 45 58 51 48 57 54 46 49 45 49 nan nan nan nan nan nan 43 nan nan nan nan nan nan nan
nan nan nan nan nan nan nan nan nan nan nan 45 55 52 53 52 56 71 69 37 50 46 51 52 50 50 52 49 52 49 55 55 50 44 45 58 nan nan nan nan 42 nan 51 nan nan nan nan nan nan
nan nan nan nan nan nan nan nan nan nan nan nan nan 54 55 50 40 48 63 68 42 51 51 56 58 57 50 48 49 49 54 47 57 57 47 51 nan nan nan 44 nan nan nan nan nan nan nan nan nan
nan nan nan nan nan nan nan nan 40 nan nan nan nan nan 56 55 49 49 63 67 59 55 41 57 39 45 50 49 49 38 60 54 66 43 29 36 41 nan 49 nan nan nan 43 38 nan nan nan nan nan
nan nan nan nan nan nan nan nan 54 nan nan nan nan nan nan nan 51 nan 51 62 61 58 56 39 40 52 49 50 51 59 59 55 47 33 36 43 48 nan 47 47 nan nan nan nan nan nan nan nan nan
Wind_Direction
nan nan nan nan nan nan nan nan nan nan nan nan nan 255 262 249 257 288 285 277 292 nan nan nan 274 274 263 246 226 224 224 194 209 232 235 233 227 216 248 233 214 191 216 225 196 239 219 234 224
nan nan nan nan nan nan nan nan nan nan nan nan nan nan 258 257 nan nan 282 284 291 nan nan nan 279 275 265 244 224 225 226 184 207 221 225 222 205 268 279 2 33 101 222 219 224 219 nan nan 184
nan nan nan nan nan nan nan nan nan nan nan nan nan 250 248 275 287 nan 283 283 291 nan nan nan 282 277 269 240 226 220 198 201 203 170 162 170 153 154 74 66 71 105 130 174 nan nan nan nan nan
nan nan nan nan nan nan nan nan nan nan 91 257 266 260 257 279 279 nan nan 288 292 294 nan 281 285 282 269 238 224 222 200 159 147 138 150 163 168 196 190 153 137 130 136 nan nan nan nan nan nan
nan nan nan nan nan nan nan nan nan nan 293 278 274 259 271 265 284 nan nan 289 281 274 281 nan 281 282 269 240 223 219 202 178 168 163 164 186 176 169 178 177 177 160 159 nan nan nan nan nan nan
nan nan nan nan nan nan nan nan nan nan 281 278 266 268 261 278 292 nan nan 280 272 281 274 279 281 269 258 237 229 225 201 190 185 186 202 196 191 184 178 180 175 171 168 nan nan nan nan nan nan
nan nan nan nan nan nan nan nan nan nan 261 282 263 253 269 298 289 296 283 273 275 275 272 265 273 258 237 nan nan 224 215 205 196 197 200 200 188 182 186 184 nan nan nan nan nan nan nan nan nan
nan nan nan nan nan nan nan nan nan nan 204 278 269 263 278 298 293 288 275 264 267 269 267 257 260 259 229 nan nan nan nan 213 212 208 nan nan nan nan nan nan nan nan nan nan nan nan nan nan nan
nan nan nan nan nan nan nan nan nan nan 222 235 230 240 292 290 297 279 282 271 262 260 265 253 257 nan 235 nan nan nan nan nan nan nan nan nan nan nan nan nan nan nan nan nan nan nan nan nan nan
nan nan nan nan nan nan nan nan nan nan 237 255 256 267 277 289 297 281 289 276 274 267 265 243 241 nan nan nan nan nan nan nan nan nan nan nan nan nan nan nan nan nan nan nan nan nan nan nan nan
nan nan nan nan nan nan nan nan 265 252 225 260 265 275 282 283 295 282 291 274 264 nan nan nan 224 nan nan nan nan nan nan nan nan nan nan nan nan nan nan nan nan nan nan nan nan nan nan nan 268
nan nan nan nan nan nan nan nan nan nan 230 247 267 271 277 275 293 287 284 279 nan 258 nan nan nan nan nan nan nan nan nan nan nan nan nan nan nan nan nan nan nan nan nan nan nan nan 268 245 nan
nan nan nan nan nan nan nan nan nan nan nan 231 264 269 271 265 288 280 277 nan nan nan nan nan nan nan nan nan nan nan nan nan nan nan nan nan nan nan nan nan nan nan nan nan 348 283 282 nan nan
nan nan nan nan nan nan nan nan nan nan nan nan 254 262 265 266 282 279 nan nan 271 nan nan nan nan nan nan nan nan 205 nan nan nan nan nan nan nan 164 nan nan nan 254 245 nan 264 nan nan nan nan
nan nan nan nan nan nan nan nan nan nan nan nan 256 259 256 260 267 273 nan 265 nan nan nan nan nan nan 209 206 216 218 216 226 nan nan 215 187 218 193 nan nan 231 255 240 244 271 nan nan nan nan
nan nan nan nan nan nan nan nan nan nan nan nan nan 251 239 254 250 253 nan 257 nan nan nan nan nan nan nan 219 220 223 224 224 222 230 223 196 224 221 214 241 250 257 267 280 275 nan nan nan nan
nan nan nan nan nan nan nan nan nan nan nan nan nan 257 245 236 242 246 nan nan nan nan nan nan nan 241 230 231 nan 220 237 225 231 234 229 221 229 237 223 249 249 266 272 nan nan nan nan nan nan
nan nan nan nan nan nan nan nan nan nan nan nan nan 261 248 245 235 255 258 nan nan 255 nan nan 235 246 237 238 229 226 236 225 235 235 238 236 232 237 213 240 253 251 nan nan nan nan nan nan nan
nan nan nan nan nan nan nan nan nan nan nan nan nan nan 254 247 250 237 249 246 nan 247 255 259 243 248 243 240 nan nan 241 227 237 237 250 242 239 237 226 245 253 251 nan nan nan nan nan nan nan
nan nan nan nan nan nan nan nan nan nan nan nan nan nan 268 251 250 244 238 248 251 238 247 258 257 253 249 243 235 234 244 231 236 236 245 242 246 247 240 nan nan nan nan nan nan nan nan nan nan
nan nan nan nan nan nan nan nan nan nan nan nan nan 271 275 267 255 252 249 240 252 247 242 259 261 265 257 244 235 235 238 235 237 238 242 240 248 nan 252 nan nan nan nan nan nan nan nan nan nan
nan nan nan nan nan nan nan nan nan nan nan nan nan 238 271 273 263 254 252 250 246 262 248 255 260 262 260 249 243 244 243 241 237 238 242 244 nan nan nan nan nan nan nan nan nan nan nan nan nan
nan nan nan nan nan nan nan nan nan nan nan nan nan nan 251 271 277 268 257 253 251 253 265 265 253 249 251 251 248 239 244 243 243 244 253 nan nan nan nan nan nan nan nan nan nan nan nan nan nan
nan nan nan nan nan nan nan nan nan nan nan nan nan nan 240 257 275 263 265 254 254 246 252 257 260 268 250 248 249 249 239 245 246 250 252 nan nan nan nan nan nan nan nan nan nan nan nan nan nan
nan nan nan nan nan nan nan nan nan nan nan nan nan nan 241 nan 261 251 234 247 249 nan 255 261 260 253 264 243 241 246 251 241 245 251 nan nan nan nan nan nan nan nan nan nan nan nan nan nan nan
nan nan nan nan nan nan nan nan nan nan nan 214 221 215 nan nan 237 267 220 273 267 nan 256 259 258 254 255 265 256 247 247 249 251 249 260 nan nan nan nan nan nan 270 nan nan nan nan nan nan nan
nan nan nan nan nan nan nan nan nan nan nan 230 231 232 232 241 227 229 238 259 255 257 254 253 255 253 257 262 258 264 256 264 258 271 274 271 nan nan nan nan 265 nan 271 nan nan nan nan nan nan
nan nan nan nan nan nan nan nan nan nan nan nan nan 235 241 243 243 230 225 231 219 246 244 243 251 254 256 256 257 268 270 250 259 258 268 271 nan nan nan 258 nan nan nan nan nan nan nan nan nan
nan nan nan nan nan nan nan nan 261 nan nan nan nan nan 240 241 242 238 234 229 238 244 229 226 238 255 251 260 264 261 263 258 256 252 259 268 274 nan 271 nan nan nan 278 277 nan nan nan nan nan
nan nan nan nan nan nan nan nan 236 nan nan nan nan nan nan nan 238 nan 242 241 240 238 243 253 243 244 247 245 252 250 248 247 260 266 273 278 280 nan 289 293 nan nan nan nan nan nan nan nan nan